Location: Unspecified
(0.0000°N, 0.0000°E)
Time: 14:04:56
(UTC+00:00)

STARLINK-35278 - Pass Details

Date: 22 February 2026
Orbit: 474 x 476 km, 53.2° (Epoch: 6 March)

Event Time Altitude Azimuth Distance (km) Brightness Sun altitude
Rises 19:26:05 0° 224° (SW) 2,535 6.9 -17.9°
Reaches altitude 10° 19:28:19 10° 231° (SW) 1,654 6.0 -18.4°
Maximum altitude 19:31:53 44° 304° (WNW) 670 3.3 -19.3°
Enters shadow 19:33:48 23° 4° (N) 1,047 3.9 -19.8°
